星链-31351 (STARLINK-31351 )

导读 | 豆包AI

STARLINK-31351是美国太空探索技术公司(SpaceX)星链互联网星座的卫星,于2024年2月15日发射入轨,属于星链星座扩容的一部分,星链项目旨在为全球用户提供高速低延迟的卫星互联网服务,该卫星加入后进一步扩充了星链星座的覆盖范围与服务能力。

基本信息
目录编号:
58972
目录名称:
STARLINK-31351
国际标识:
2024-031H
轨道中心:
EARTH
卫星名称:
星链-31351
卫星全名:
星链-31351 (STARLINK-31351 )
卫星状态:
在轨 (已飞行805 天)
发射日期:
2024-02-15 UTC
国别 :
美国 (US)
星等 :
--
轨道信息
数据来源 国际轨道数据
星历时间: 2026-04-30T21:06:21+0800
10小时前
查看轨道信息
半长轴: 6853.405km
偏心率: 0.0001329
轨道倾角: 53.162°
近地点辐角 90.156°
升交点赤经 55.753°
平近点角 269.960°
近地点: 474.357km
远地点: 476.179km
周期: 94.106分钟
每日圈数: 15.301825
详细信息
固有亮度:
5
最大亮度:
0.3
卫星平台:
Starlink v2.0 mini
覆盖范围:
全球
运营商:
太空探索技术公司
运营商所在国:
美国
制造商(研发单位):
太空探索技术公司
制造商所在国:
美国
使用方式:
暂无
卫星简介
星链(Starlink)计划是由太空探索技术公司(SpaceX)提出的一个巨型低轨卫星互联网星座项目,计划在2019年至2024年间在太空搭建由约1.2万颗卫星组成的“星链”网络,其中1584颗将部署在地球上空550千米处的近地轨道,并从2020年开始工作。该卫星仍在工作。
2D轨道图
3D轨道图
轨道高度分析图
轨道倾角分析图
轨道综合分析图
查看轨道综合分析图